This is the latest recevied weather packets stored in our database for station/object WE8L. If no packets are shown the sender has not sent any weather packets the latest 1 day(s).
| Time | Temp. | Humidity | Pressure | Rain* | Wind** | Luminosity | Snow |
|---|---|---|---|---|---|---|---|
| 1778107416 | 14.44° C | 52% | 1015.8 hPa | 0 mm | - | 49 W/m² | - |
| 1778107112 | 13.89° C | 55% | 1015.7 hPa | 0 mm | - | 50 W/m² | - |
| 1778106807 | 13.89° C | 54% | 1016 hPa | 0 mm | - | 44 W/m² | - |
| 1778106200 | 13.89° C | 54% | 1015.9 hPa | 0 mm | - | 47 W/m² | - |
| 1778104994 | 13.89° C | 55% | 1016.1 hPa | 0 mm | - | 50 W/m² | - |
| 1778104387 | 14.44° C | 55% | 1016.1 hPa | 0 mm | - | 47 W/m² | - |
| 1778103780 | 14.44° C | 55% | 1015.9 hPa | 0 mm | - | 66 W/m² | - |
| 1778102263 | 14.44° C | 53% | 1016 hPa | 0 mm | - | 57 W/m² | - |
| 1778101051 | 14.44° C | 52% | 1015.5 hPa | 0 mm | - | 78 W/m² | - |
| 1778099234 | 14.44° C | 53% | 1015.7 hPa | 0 mm | - | 73 W/m² | - |
| 1778096807 | 14.44° C | 50% | 1015.6 hPa | 0 mm | - | 63 W/m² | - |
| 1778096503 | 14.44° C | 54% | 1015.6 hPa | 0 mm | - | 61 W/m² | - |
| 1778096201 | 14.44° C | 53% | 1015.4 hPa | 0 mm | - | 63 W/m² | - |
| 1778095898 | 15° C | 52% | 1015.5 hPa | 0 mm | - | 89 W/m² | - |
| 1778094078 | 15° C | 54% | 1015.3 hPa | 0 mm | - | 149 W/m² | - |
| 1778093775 | 15° C | 50% | 1015.3 hPa | 0 mm | - | 145 W/m² | - |
| 1778093471 | 15° C | 52% | 1015.3 hPa | 0 mm | - | 95 W/m² | - |
| 1778092866 | 15° C | 51% | 1015.3 hPa | 0 mm | - | 101 W/m² | - |
| 1778091956 | 15.56° C | 48% | 1015.1 hPa | 0 mm | - | 188 W/m² | - |
| 1778091653 | 15° C | 52% | 1015.3 hPa | 0 mm | - | 215 W/m² | - |
| 1778091351 | 15° C | 52% | 1015.2 hPa | 0 mm | - | 156 W/m² | - |
| 1778090441 | 15.56° C | 51% | 1015.4 hPa | 0 mm | - | 246 W/m² | - |
| 1778089533 | 15° C | 49% | 1015.6 hPa | 0 mm | - | 240 W/m² | - |
| 1778087714 | 14.44° C | 57% | 1015.6 hPa | 0 mm | - | 146 W/m² | - |
| 1778086194 | 13.89° C | 59% | 1015.9 hPa | 0 mm | - | 405 W/m² | - |
* Rain latest hour (hover to see other rain measurements)
** Current wind speed in m/s (hover to see current wind gust speed)